Regional Weather Roundup
Issued by NWS Memphis, TN

Home | Current Version | Previous Version | Text Only | Print | Product List | Glossary On
Versions: 1 2 3 4 5 6 7 8 9 10 11 12 13 14 15 16 17 18 19 20 21 22 23 24 25 26 27 28 29 30 31 32 33 34 35 36 37 38 39 40 41 42 43 44 45 46 47 48 49 50
000
ASUS44 KMEG 221310
RWRMEG
MEMPHIS CWA HOURLY WEATHER ROUNDUP
NATIONAL WEATHER SERVICE MEMPHIS TN
800 AM CDT FRI SEP 22 2017

...WEST TENNESSEE...

CITY           SKY/WX    TMP DP  RH WIND       PRES   REMARKS
MEMPHIS INTL   MOSUNNY   77  72  84 E5        30.05R
NWS MEMPHIS      N/A     73 N/A N/A MISG        N/A
JACKSON        SUNNY     71  71 100 E5        30.07R
COVINGTON      SUNNY     72  70  94 CALM      30.06R FOG
SOMERVILLE     SUNNY     72  70  94 CALM      30.05R
BOLIVAR        SUNNY     70  70 100 CALM      30.05S
LEXINGTON      SUNNY     68  68 100 CALM      30.07R
SAVANNAH       SUNNY     66  66 100 CALM      30.06S
DYERSBURG      SUNNY     72  70  93 E3        30.07R
PARIS          SUNNY     72  72 100 CALM      30.06S
HUNTINGDON     SUNNY     72  70  94 CALM      30.06S FOG


...EASTERN ARKANSAS...

CITY           SKY/WX    TMP DP  RH WIND       PRES   REMARKS
JONESBORO      SUNNY     73  72  96 NE3       30.05R
WEST MEMPHIS   SUNNY     73  73 100 CALM      30.03R
BATESVILLE     SUNNY    N/A N/A N/A CALM      30.05S FOG
NEWPORT        SUNNY     71  69  93 NE5       30.04S
BLYTHEVILLE    SUNNY     74  73  97 CALM      30.05R
SEARCY         SUNNY     72  72 100 CALM      30.05S
STUTTGART      SUNNY     73  71  93 CALM      30.03S
PINE BLUFF     SUNNY     72  70  93 CALM      30.03R
MONTICELLO     PTSUNNY   72  70  93 CALM      30.02S


...NORTH MISSISSIPPI...

CITY           SKY/WX    TMP DP  RH WIND       PRES   REMARKS
TUPELO         SUNNY     73  69  87 N3        30.05R
OXFORD         SUNNY     72  70  94 CALM      30.06R
BATESVILLE     SUNNY     69  68  95 CALM      30.05S FOG
OLIVE BRANCH   MOSUNNY  N/A N/A N/A CALM      30.05R
TUNICA           N/A     70  70 100 CALM      30.05R FOG
CLARKSDALE       N/A     72  72 100 CALM      30.04R FOG
GREENWOOD      SUNNY     73  70  90 NE3       30.03R
COLUMBUS       SUNNY     72  72 100 CALM      30.04R
STARKVILLE     RAIN      72  70  94 SE3       30.06R


...SOUTHEAST MISSOURI...

CITY           SKY/WX    TMP DP  RH WIND       PRES   REMARKS
KENNETT        SUNNY     73  73 100 MISG      30.04S FOG
MALDEN         SUNNY     72  70  94 CALM      30.07R
WEST PLAINS    SUNNY     71  68  90 NE3       30.09R
POPLAR BLUFF   SUNNY     70  69  97 CALM      30.05S FOG
CAPE GIRARDEAU SUNNY     71  70  96 CALM      30.06S FOG


...NORTHWEST ALABAMA...

CITY           SKY/WX    TMP DP  RH WIND       PRES   REMARKS
MUSCLE SHOALS  FOG       68  66  93 CALM      30.08R VSB 1/4


...MIDDLE TENNESSEE...

CITY           SKY/WX    TMP DP  RH WIND       PRES   REMARKS
NASHVILLE      SUNNY     70  68  93 CALM      30.09R
CLARKSVILLE    SUNNY     71  68  90 CALM      30.08S FOG
COLUMBIA       FOG       68 N/A N/A CALM      30.07R VSB 0


...WESTERN KENTUCKY...

CITY           SKY/WX    TMP DP  RH WIND       PRES   REMARKS
PADUCAH        SUNNY     71  68  90 CALM      30.06S
FORT CAMPBELL  SUNNY     72  69  91 CALM      30.08R


...CENTRAL ARKANSAS...

CITY           SKY/WX    TMP DP  RH WIND       PRES   REMARKS
LITTLE ROCK    SUNNY     73  73 100 CALM      30.03S FOG


SKY/WX REPORTED AS FAIR MEANS FEW OR NO CLOUDS BELOW
12 THOUSAND FEET.




USA.gov is the U.S. government's official web portal to all federal, state and local government web resources and services.